#timestamp,LO_Frequency,Hit,StdDev 
1550671215.7,286046998.3,N
1550671235.5,286046998.7,N
1550671255.3,286047000.9,N
1550671275.2,286046998.5,N
1550671295.0,286047000.0,N
1550671295.9,286047000.0,N
1550671315.8,286047000.6,N
1550671335.6,286047000.5,N
1550671355.4,286047000.6,N
1550671375.3,286047000.6,N
1550671395.1,286047000.0,N
1550671415.8,286047000.3,N
1550671435.7,286046999.9,N
1550671455.5,286046999.7,N
1550671475.4,286047002.8,N
1550671495.2,286047000.0,N
1550671515.0,286046999.1,N
1550671515.9,286046999.1,N
1550671535.8,286046999.2,N
1550671555.6,286047001.0,N
1550671575.4,286046998.1,N
1550671595.3,286046998.9,N
1550671615.1,286046998.6,N
1550671635.9,286046998.6,N
1550671655.7,286047000.5,N
1550671675.5,286046999.1,N
1550671695.4,286046999.6,N
1550671715.2,286046999.4,N
1550671735.0,286046996.6,Y
1550671735.9,286046996.6,P
1550671755.8,286046999.3,N
1550671775.6,286046999.3,N
1550671795.5,286046998.8,N
1550671815.3,286046999.5,N
1550671835.1,286046999.5,N
1550671855.9,286046999.3,N
1550671875.7,286047000.3,N
1550671895.5,286047002.8,N
1550671915.4,286047000.5,N
1550671935.2,286047000.4,N
1550671955.1,286047000.4,N
1550671956.0,286047000.4,N
1550671975.8,286047000.3,N
1550671995.6,286047000.9,N
1550672015.5,286046999.0,N
1550672035.3,286046996.8,N
1550672055.2,286046997.4,N
1550672075.9,286046997.4,N
1550672095.7,286046999.0,N
1550672115.6,286046998.2,N
1550672135.4,286046999.4,N
1550672155.2,286046996.5,N
1550672175.1,286046999.3,N
1550672176.0,286046999.3,N
1550672195.8,286046996.5,N
1550672215.7,286046996.6,N
1550672235.5,286046998.0,N
1550672255.3,286046996.9,N
1550672275.2,286046997.2,N
1550672295.9,286046996.7,N
1550672315.7,286046999.0,N
1550672335.6,286046999.3,N
1550672355.4,286046998.8,N
1550672375.3,286046998.6,N
1550672395.1,286047001.2,N
1550672396.0,286047001.2,N
1550672415.8,286046999.5,N
1550672435.7,286046999.4,N
1550672455.5,286046999.1,N
1550672475.3,286046999.4,N
1550672495.2,286046999.3,N
1550672515.0,286046999.6,N
1550672515.9,286046999.6,N
1550672535.8,286046999.2,N
1550672555.6,286046996.6,N
1550672575.4,286046997.2,N
1550672595.3,286046996.7,N
1550672615.1,286046997.2,N
1550672635.8,286046997.7,N
1550672655.7,286046997.6,N
1550672675.5,286046995.0,Y
1550672695.4,286046997.1,P
1550672715.2,286046996.9,P
1550672735.0,286046999.0,N
1550672735.9,286046999.0,N
1550672755.8,286046998.3,N
1550672775.6,286046997.4,Y
1550672795.5,286046998.4,P
1550672815.3,286046998.6,P
1550672835.1,286046999.9,N
1550672855.9,286047000.0,N
1550672875.7,286047001.2,N
1550672895.5,286046998.1,N
1550672915.4,286047001.1,N
1550672935.2,286046998.2,N
1550672955.1,286047000.4,N
1550672956.0,286047000.4,N
1550672975.8,286047002.7,N
1550672995.6,286046999.7,N
1550673015.5,286047002.4,N
1550673035.3,286047000.6,N
1550673055.2,286046998.4,N
1550673075.9,286046998.8,N
1550673095.7,286046999.4,N
1550673115.6,286046997.3,N
1550673135.4,286046997.2,N
1550673155.2,286046997.4,N
1550673175.1,286046997.6,N
1550673176.0,286046997.6,N
1550673195.8,286046996.1,N
1550673215.7,286046998.0,N
1550673235.5,286046998.4,N
1550673255.3,286046999.2,N
1550673275.2,286046998.8,N
1550673295.0,286046998.5,N
1550673295.9,286046998.5,N
1550673315.8,286046998.1,N
1550673335.6,286046998.3,N
1550673355.4,286046998.8,N
1550673375.3,286046998.5,N
1550673395.1,286047000.3,N
1550673415.8,286047000.4,N
1550673435.7,286047000.4,N
1550673455.5,286047000.0,N
1550673475.4,286047002.6,N
1550673495.2,286047002.2,N
1550673515.0,286047001.5,N
1550673515.9,286047001.5,N
1550673535.8,286047002.5,N
1550673555.6,286047002.6,N
1550673575.4,286047001.6,N
1550673595.3,286047002.4,N
1550673615.1,286047003.2,N
1550673635.9,286047004.3,N
1550673655.7,286047001.7,N
1550673675.5,286047002.0,N
1550673695.4,286047004.3,N
1550673715.2,286047004.2,N
1550673735.1,286047002.3,N
1550673736.0,286047002.3,N
1550673755.8,286047001.9,N
1550673775.6,286047000.4,N
1550673795.5,286047000.6,N
1550673815.3,286046998.2,N
1550673835.1,286046998.7,N
1550673855.9,286046998.3,N
1550673875.7,286046999.0,N
1550673895.6,286047000.8,N
1550673915.4,286047000.9,N
1550673935.2,286047001.1,N
1550673955.1,286046999.8,N
1550673956.0,286046999.8,N
1550673975.8,286047000.2,N
1550673995.6,286047001.1,N
1550674015.5,286047000.2,N
1550674035.3,286046999.8,N
1550674055.2,286046998.4,N
1550674075.9,286046996.6,N
1550674095.7,286046999.2,N
1550674115.6,286046997.0,N
1550674135.4,286046999.3,N
1550674155.3,286046999.4,N
1550674175.1,286046997.0,N
1550674176.0,286046997.0,N
1550674195.8,286046996.8,N
1550674215.7,286046999.5,N
1550674235.5,286047001.2,N
1550674255.3,286047000.1,N
1550674275.2,286047002.6,N
1550674295.0,286047004.1,N
1550674295.9,286047004.1,N
1550674315.8,286047004.0,N
1550674335.6,286047001.4,N
1550674355.4,286047000.4,N
1550674375.3,286047001.1,N
1550674395.1,286046998.4,N
1550674415.9,286047000.5,N
1550674435.7,286046999.4,N
1550674455.5,286046998.6,N
1550674475.4,286046998.8,N
1550674495.2,286047000.7,N
1550674515.0,286046998.1,N
1550674515.9,286046998.1,N
1550674535.8,286047002.3,N
1550674555.6,286046998.5,N
1550674575.5,286047001.0,N
1550674595.3,286046998.5,N
1550674615.1,286046998.1,N
1550674635.9,286046998.5,N
1550674655.7,286046998.4,N
1550674675.6,286046998.9,N
1550674695.4,286046998.4,N
1550674715.2,286047000.7,N
1550674735.1,286047001.2,N
1550674736.0,286047001.2,N
1550674755.8,286046998.7,N
1550674775.6,286047000.8,N
1550674795.5,286046998.1,N
